When you browse on this site, cookies collect data to enhance your experience and personalize the content and advertising you see.
Visit our Privacy Policy to learn more. By continuing to use the site, you agree to this use of cookies and data.
  • în România
  • Lista ţărilor
  • Pe 7 zile
  • Temperatura apei
  • Meteo pe hartă
  • Widget-uri
  • user-avatar
    Intrare

    Meteo pe oră la Agartala

    Astăzi, 30 Martie, Luni

    Timp Temperatura Precipitaţii Vânt Presiune Umiditate
    00:00 +25°C° 0 mm 1 m/s 755 mmHg 37%
    01:00 +25°C° 0 mm 1 m/s 754 mmHg 44%
    02:00 +24°C° 0 mm 1 m/s 754 mmHg 51%
    03:00 +24°C° 0 mm 1 m/s 753 mmHg 58%
    04:00 +24°C° 0 mm 1 m/s 753 mmHg 59%
    05:00 +23°C° 0 mm 1 m/s 754 mmHg 61%
    06:00 +23°C° 0 mm 1 m/s 755 mmHg 60%
    07:00 +27°C° 0 mm 1 m/s 755 mmHg 47%
    08:00 +31°C° 0 mm 1 m/s 755 mmHg 35%
    09:00 +33°C° 0 mm 0 m/s 756 mmHg 23%
    10:00 +37°C° 0 mm 2 m/s 755 mmHg 19%
    11:00 +38°C° 0 mm 3 m/s 755 mmHg 15%
    12:00 +41°C° 0 mm 4 m/s 754 mmHg 12%
    13:00 +41°C° 0 mm 4 m/s 754 mmHg 11%
    14:00 +41°C° 0 mm 4 m/s 753 mmHg 10%
    15:00 +42°C° 0 mm 4 m/s 752 mmHg 10%
    16:00 +38°C° 0 mm 4 m/s 752 mmHg 12%
    17:00 +36°C° 0 mm 3 m/s 752 mmHg 14%
    18:00 +34°C° 0 mm 2 m/s 752 mmHg 16%
    19:00 +31°C° 0 mm 2 m/s 753 mmHg 17%
    20:00 +29°C° 0 mm 1 m/s 754 mmHg 19%
    21:00 +28°C° 0 mm 1 m/s 754 mmHg 20%
    22:00 +27°C° 0 mm 1 m/s 754 mmHg 21%
    23:00 +26°C° 0 mm 2 m/s 754 mmHg 22%

    Mâine, 31 Martie, Marţi

    Timp Temperatura Precipitaţii Vânt Presiune Umiditate
    00:00 +25°C° 0 mm 2 m/s 754 mmHg 23%
    01:00 +25°C° 0 mm 2 m/s 754 mmHg 28%
    02:00 +24°C° 0 mm 2 m/s 754 mmHg 32%
    03:00 +24°C° 0 mm 2 m/s 753 mmHg 36%
    04:00 +23°C° 0 mm 2 m/s 754 mmHg 42%
    05:00 +23°C° 0 mm 2 m/s 754 mmHg 48%
    06:00 +21°C° 0 mm 2 m/s 754 mmHg 54%
    07:00 +26°C° 0 mm 1 m/s 755 mmHg 45%
    08:00 +30°C° 0 mm 1 m/s 755 mmHg 36%
    09:00 +34°C° 0 mm 1 m/s 756 mmHg 28%
    10:00 +36°C° 0 mm 1 m/s 755 mmHg 22%
    11:00 +39°C° 0 mm 2 m/s 755 mmHg 17%
    12:00 +41°C° 0 mm 2 m/s 755 mmHg 12%
    13:00 +42°C° 0 mm 3 m/s 754 mmHg 11%
    14:00 +43°C° 0 mm 3 m/s 753 mmHg 10%
    15:00 +43°C° 0 mm 4 m/s 752 mmHg 9%
    16:00 +40°C° 0 mm 3 m/s 752 mmHg 11%
    17:00 +37°C° 0 mm 3 m/s 752 mmHg 13%
    18:00 +35°C° 0 mm 2 m/s 752 mmHg 16%
    19:00 +32°C° 0 mm 2 m/s 752 mmHg 18%
    20:00 +30°C° 0 mm 2 m/s 753 mmHg 21%
    21:00 +28°C° 0 mm 2 m/s 754 mmHg 24%
    22:00 +27°C° 0 mm 2 m/s 754 mmHg 32%
    23:00 +26°C° 0 mm 2 m/s 754 mmHg 40%

    Poimâine, 1 Aprilie, Miercuri

    Timp Temperatura Precipitaţii Vânt Presiune Umiditate
    00:00 +26°C° 0 mm 1 m/s 754 mmHg 48%
    01:00 +25°C° 0 mm 2 m/s 754 mmHg 53%
    02:00 +24°C° 0 mm 2 m/s 753 mmHg 59%
    03:00 +24°C° 0 mm 3 m/s 753 mmHg 64%
    04:00 +22°C° 0 mm 3 m/s 753 mmHg 68%
    05:00 +22°C° 0 mm 3 m/s 754 mmHg 72%
    06:00 +21°C° 0 mm 2 m/s 754 mmHg 76%
    07:00 +26°C° 0 mm 2 m/s 754 mmHg 64%
    08:00 +29°C° 0 mm 2 m/s 755 mmHg 52%
    09:00 +34°C° 0 mm 2 m/s 755 mmHg 39%
    10:00 +37°C° 0 mm 3 m/s 755 mmHg 31%
    11:00 +39°C° 0 mm 3 m/s 754 mmHg 23%
    12:00 +43°C° 0 mm 3 m/s 753 mmHg 15%
    13:00 +44°C° 0 mm 4 m/s 752 mmHg 13%
    14:00 +44°C° 0 mm 4 m/s 752 mmHg 12%
    15:00 +45°C° 0 mm 4 m/s 751 mmHg 11%
    16:00 +42°C° 0 mm 4 m/s 751 mmHg 15%
    17:00 +40°C° 0 mm 4 m/s 751 mmHg 20%
    18:00 +37°C° 0 mm 4 m/s 750 mmHg 24%
    19:00 +34°C° 0 mm 4 m/s 751 mmHg 37%
    20:00 +32°C° 0 mm 4 m/s 752 mmHg 51%
    21:00 +29°C° 0 mm 4 m/s 752 mmHg 64%
    22:00 +29°C° 0 mm 4 m/s 752 mmHg 68%
    23:00 +28°C° 0 mm 3 m/s 752 mmHg 72%

    2 Aprilie, Joi

    Timp Temperatura Precipitaţii Vânt Presiune Umiditate
    00:00 +28°C° 0 mm 3 m/s 752 mmHg 75%
    01:00 +27°C° 0 mm 3 m/s 752 mmHg 79%
    02:00 +27°C° 0 mm 3 m/s 752 mmHg 84%
    03:00 +26°C° 0 mm 4 m/s 752 mmHg 88%
    04:00 +26°C° 0 mm 4 m/s 752 mmHg 90%
    05:00 +26°C° 0 mm 4 m/s 752 mmHg 92%
    06:00 +25°C° 0 mm 4 m/s 753 mmHg 95%
    07:00 +27°C° 0 mm 4 m/s 753 mmHg 87%
    08:00 +29°C° 0 mm 4 m/s 754 mmHg 79%
    09:00 +30°C° 0 mm 4 m/s 755 mmHg 72%
    10:00 +34°C° 0 mm 4 m/s 754 mmHg 60%
    11:00 +37°C° 0 mm 4 m/s 754 mmHg 49%
    12:00 +40°C° 0 mm 4 m/s 753 mmHg 38%
    13:00 +40°C° 0.1 mm 6 m/s 752 mmHg 35%
    14:00 +40°C° 0.1 mm 7 m/s 752 mmHg 31%
    15:00 +40°C° 0.1 mm 8 m/s 751 mmHg 28%
    16:00 +38°C° 0.1 mm 6 m/s 751 mmHg 32%
    17:00 +35°C° 0.1 mm 4 m/s 752 mmHg 37%
    18:00 +31°C° 0.1 mm 2 m/s 752 mmHg 41%
    19:00 +30°C° 0.2 mm 2 m/s 753 mmHg 51%
    20:00 +28°C° 0.2 mm 2 m/s 753 mmHg 60%
    21:00 +26°C° 0.2 mm 3 m/s 754 mmHg 70%
    22:00 +26°C° 0 mm 2 m/s 754 mmHg 76%
    23:00 +26°C° 0 mm 2 m/s 754 mmHg 83%

    3 Aprilie, Vineri

    Timp Temperatura Precipitaţii Vânt Presiune Umiditate
    00:00 +25°C° 0 mm 1 m/s 754 mmHg 89%
    01:00 +25°C° 0 mm 2 m/s 754 mmHg 91%
    02:00 +26°C° 0 mm 2 m/s 754 mmHg 93%
    03:00 +26°C° 0 mm 2 m/s 753 mmHg 96%
    04:00 +26°C° 0 mm 3 m/s 754 mmHg 94%
    05:00 +26°C° 0 mm 3 m/s 754 mmHg 92%
    06:00 +27°C° 0 mm 3 m/s 754 mmHg 91%
    07:00 +28°C° 0 mm 3 m/s 755 mmHg 81%
    08:00 +30°C° 0 mm 3 m/s 755 mmHg 72%
    09:00 +33°C° 0 mm 4 m/s 756 mmHg 63%
    10:00 +35°C° 0 mm 4 m/s 755 mmHg 54%
    11:00 +38°C° 0 mm 4 m/s 755 mmHg 45%
    12:00 +41°C° 0 mm 4 m/s 754 mmHg 36%
    13:00 +41°C° 0 mm 4 m/s 753 mmHg 34%
    14:00 +42°C° 0 mm 5 m/s 753 mmHg 32%
    15:00 +42°C° 0 mm 5 m/s 752 mmHg 31%
    16:00 +35°C° 6.8 mm 7 m/s 752 mmHg 43%
    17:00 +29°C° 6.8 mm 8 m/s 752 mmHg 55%
    18:00 +22°C° 6.8 mm 10 m/s 752 mmHg 67%
    19:00 +23°C° 0.3 mm 7 m/s 753 mmHg 70%
    20:00 +23°C° 0.3 mm 5 m/s 754 mmHg 73%
    21:00 +24°C° 0.3 mm 3 m/s 756 mmHg 76%
    22:00 +24°C° 0 mm 3 m/s 755 mmHg 80%
    23:00 +24°C° 0 mm 3 m/s 755 mmHg 84%

    4 Aprilie, Sâmbătă

    Timp Temperatura Precipitaţii Vânt Presiune Umiditate
    00:00 +24°C° 0 mm 2 m/s 755 mmHg 88%
    01:00 +24°C° 0 mm 2 m/s 755 mmHg 91%
    02:00 +24°C° 0 mm 2 m/s 755 mmHg 93%
    03:00 +24°C° 0 mm 2 m/s 754 mmHg 95%
    04:00 +25°C° 0 mm 2 m/s 755 mmHg 95%
    05:00 +25°C° 0 mm 3 m/s 755 mmHg 95%
    06:00 +25°C° 0 mm 3 m/s 755 mmHg 95%
    07:00 +27°C° 0 mm 3 m/s 755 mmHg 90%
    08:00 +28°C° 0 mm 3 m/s 756 mmHg 84%
    09:00 +29°C° 0 mm 3 m/s 756 mmHg 78%
    10:00 +31°C° 0 mm 3 m/s 756 mmHg 71%
    11:00 +33°C° 0 mm 3 m/s 756 mmHg 64%
    12:00 +34°C° 0 mm 3 m/s 755 mmHg 57%
    13:00 +36°C° 0 mm 3 m/s 754 mmHg 47%
    14:00 +38°C° 0 mm 2 m/s 753 mmHg 38%
    15:00 +39°C° 0 mm 2 m/s 752 mmHg 28%
    16:00 +35°C° 0.6 mm 4 m/s 752 mmHg 38%
    17:00 +30°C° 0.6 mm 5 m/s 753 mmHg 47%
    18:00 +26°C° 0.6 mm 7 m/s 753 mmHg 56%
    19:00 +26°C° 0 mm 6 m/s 753 mmHg 58%
    20:00 +26°C° 0 mm 5 m/s 754 mmHg 59%
    21:00 +26°C° 0 mm 4 m/s 755 mmHg 60%
    22:00 +25°C° 0 mm 3 m/s 755 mmHg 64%
    23:00 +24°C° 0 mm 2 m/s 755 mmHg 68%
    Arată mai mult